Location: Paddlesworth
(51.1000°N, 1.1333°E)
Time: 20:45:43
(UTC+00:00)

SPOT 5 - Pass Details

Date: 11 May 2021
Orbit: 623 x 815 km, 98.2° (Epoch: 18 June)

Event Time Altitude Azimuth Distance (km) Brightness Sun altitude
Exits shadow 21:38:30 19° 176° (S) 1,771 4.4 -14.9°
Maximum altitude 21:42:12 71° 257° (WSW) 837 3.2 -15.2°
Drops below altitude 10° 21:47:32 10° 342° (NNW) 2,400 6.8 -15.6°
Sets 21:49:56 0° 345° (NNW) 3,346 7.9 -15.8°
